Wind_Speed
21 21 21 20 19 19 19 19 18 18 18 18 18 17 16 16 16 17 17 17 17 17 18 18 19 20 21 21 22 22 23 23 24 26 28 29 28 27 26 26 26 27 26 26 26 26 25 24 24 24 23 22 22 21 20 19 19 18 18 17 17 17 16 16 16 16 16 16 16 16 16 16 16 15 15 15 15 14 14 13 12 11 10 10 9
19 19 18 17 18 19 19 18 17 17 16 16 16 16 16 16 16 16 17 17 17 17 17 18 19 20 20 21 22 22 23 23 24 25 27 28 28 27 26 27 27 27 27 26 26 26 26 26 26 26 26 25 24 23 22 21 20 20 20 19 19 18 17 17 17 16 16 17 16 16 16 16 16 16 16 16 16 16 15 14 14 13 12 11 10
18 17 16 16 17 17 17 17 16 15 14 14 15 16 15 15 15 16 16 17 17 17 17 17 18 18 19 20 21 22 22 22 23 24 26 27 27 27 27 27 28 27 27 26 26 26 27 27 27 28 28 27 26 25 24 23 22 22 22 21 21 20 19 19 18 17 17 17 17 17 17 17 17 17 17 17 17 17 16 16 15 14 13 13 12
16 15 15 16 16 16 16 16 15 14 13 13 14 14 15 15 15 15 16 16 17 17 17 16 16 17 17 18 20 20 21 22 23 23 25 25 26 27 28 28 29 28 27 27 26 26 27 27 29 30 29 29 28 27 26 25 24 24 24 24 23 22 22 21 20 19 19 19 18 18 18 17 17 17 18 18 18 18 17 17 16 16 15 14 13
14 14 14 14 14 15 15 14 14 12 12 12 13 14 15 15 15 15 15 16 16 16 16 16 16 16 17 18 19 20 20 21 22 23 24 24 24 26 28 28 27 27 27 26 26 27 28 28 29 29 27 27 29 29 29 28 27 26 26 25 25 24 24 24 23 22 21 21 20 19 19 18 18 18 18 18 18 18 18 18 17 17 16 15 14
14 13 13 13 13 13 13 13 13 12 11 12 12 14 15 15 15 15 15 15 16 16 16 16 16 16 17 18 18 19 20 21 21 22 22 23 23 24 26 26 26 28 28 26 27 27 26 27 27 24 22 24 27 29 30 30 29 28 28 27 26 26 26 26 26 25 24 23 22 21 21 20 19 19 19 19 19 19 19 19 18 18 17 16 16
13 12 12 13 13 12 12 13 12 12 12 11 12 14 15 15 14 14 15 15 16 16 17 17 16 16 16 17 18 18 19 20 21 21 21 21 21 22 22 22 23 27 27 24 23 23 23 25 26 24 23 24 24 26 29 31 31 30 30 29 28 27 27 27 27 27 27 26 24 23 22 22 21 21 20 20 20 20 20 20 19 19 18 17 16
12 12 12 12 12 12 12 12 12 13 12 12 13 13 14 14 13 13 15 16 17 17 17 17 16 16 16 16 17 18 19 20 20 21 21 20 20 19 19 18 19 22 24 23 22 22 23 24 25 26 25 24 24 24 26 29 31 31 31 30 29 28 28 29 29 28 29 28 27 26 25 24 23 22 22 22 22 21 21 21 21 20 20 19 18
11 11 11 11 11 11 12 12 12 13 13 13 14 13 13 13 12 13 15 16 17 17 17 17 16 16 16 16 17 18 19 19 20 21 21 21 20 19 18 17 17 19 21 21 22 22 22 22 24 25 25 25 24 24 25 27 29 30 31 30 30 30 29 30 30 29 29 29 29 28 27 26 25 24 23 23 23 23 23 22 22 22 21 20 19
12 11 11 11 11 11 12 12 12 13 13 14 14 13 12 12 13 14 15 16 16 16 17 17 17 16 16 16 16 17 18 19 20 21 21 21 19 18 17 18 18 18 18 18 19 20 21 22 23 25 26 26 26 25 25 26 27 29 30 31 31 31 31 30 30 30 29 29 29 29 29 28 28 26 25 25 24 24 23 23 23 23 23 22 21
13 12 11 11 11 11 12 12 12 13 13 13 14 13 11 12 13 14 15 15 15 16 16 16 17 17 16 16 16 16 17 18 19 20 21 21 20 18 17 18 18 18 18 18 19 19 20 22 22 24 27 28 27 26 26 26 27 28 29 30 31 32 31 31 30 30 30 29 29 29 29 29 29 29 27 26 26 25 24 24 24 24 24 23 22
15 14 12 11 11 11 12 12 13 13 13 13 13 12 12 12 13 14 14 15 15 15 15 16 17 17 17 16 16 16 16 17 18 19 20 20 21 20 19 18 19 19 19 19 19 19 20 21 22 24 26 26 25 27 28 28 28 28 29 29 31 31 32 31 31 31 31 30 29 29 29 30 30 30 29 29 28 27 26 25 25 25 25 24 23
15 15 14 12 11 11 12 12 13 13 13 13 13 13 12 13 13 14 14 14 15 14 14 15 15 15 15 16 17 17 17 17 16 17 18 19 19 20 19 19 19 20 20 19 20 20 21 22 22 24 25 24 24 26 28 29 29 30 29 29 30 31 31 32 32 32 32 31 30 29 29 29 30 30 31 30 30 30 29 28 27 26 26 25 25
15 15 14 12 11 11 12 12 13 13 14 13 13 14 14 13 13 13 14 14 14 13 13 14 13 14 14 15 16 16 17 16 16 16 17 18 18 19 19 19 19 19 20 20 20 21 22 22 23 24 25 24 24 24 26 29 30 30 29 30 30 30 31 32 32 33 33 32 31 31 30 30 30 30 30 31 31 31 31 30 29 28 27 27 27
16 15 14 13 11 10 11 12 13 14 14 14 14 14 14 14 14 13 13 14 14 14 14 14 14 14 15 16 15 16 17 16 16 16 16 17 18 18 18 18 19 19 19 19 20 20 21 22 22 23 23 24 24 23 24 25 25 27 28 29 30 31 31 32 33 33 33 34 33 32 31 31 30 30 30 31 31 32 32 32 32 30 29 28 28
15 15 15 14 12 10 10 11 12 14 15 15 15 15 15 15 15 15 14 15 15 15 15 15 16 16 16 16 16 16 17 17 17 17 16 16 17 18 18 18 19 19 19 19 20 20 20 20 21 22 22 23 23 23 22 21 21 23 26 28 28 27 28 30 32 33 33 34 34 33 32 31 31 30 31 31 31 32 32 32 32 32 31 31 30
14 14 14 15 14 12 11 10 11 13 15 15 16 16 16 17 17 16 16 15 16 17 17 17 17 18 18 17 16 16 17 16 17 17 16 16 17 17 17 18 18 18 18 19 20 20 20 19 20 21 20 20 21 22 22 21 22 22 23 24 23 22 23 25 27 29 32 34 34 34 33 32 31 30 30 30 31 31 31 32 32 33 33 32 32
14 13 13 14 14 14 14 12 12 12 14 15 16 16 17 18 18 18 17 17 17 18 19 19 19 20 19 18 18 17 17 17 17 17 17 17 17 17 17 17 17 17 18 19 19 20 19 19 19 20 20 20 20 20 20 20 21 22 22 21 21 21 22 23 23 24 27 32 35 35 34 33 32 31 31 30 30 30 30 31 31 32 32 32 32
14 14 13 13 13 15 16 16 14 13 13 15 16 17 18 18 19 19 19 19 19 19 20 20 20 21 20 20 19 19 18 18 17 18 17 16 16 17 18 18 17 18 18 18 19 19 18 19 20 21 21 20 20 20 21 21 21 20 21 21 20 22 22 21 20 22 24 28 33 36 36 35 33 32 32 31 30 30 30 30 30 31 31 31 31
16 16 16 16 17 18 18 19 18 15 14 14 15 17 18 19 20 20 20 20 20 20 21 21 21 21 21 21 20 20 19 19 18 18 17 17 16 17 18 18 18 18 18 19 19 19 19 19 20 20 19 19 19 20 21 22 21 20 19 17 17 20 21 21 21 21 23 25 29 34 37 36 34 33 33 32 31 31 31 30 30 29 29 29 30
19 19 19 20 21 21 19 19 19 17 15 15 16 16 17 18 19 20 21 21 21 22 21 21 21 21 21 20 20 20 20 20 19 18 19 19 18 18 18 18 18 18 18 20 21 21 20 20 21 21 21 21 21 22 22 22 22 22 20 17 15 16 19 22 22 22 23 23 24 28 34 36 36 35 35 34 33 33 32 31 30 28 28 28 29
20 21 21 22 23 22 20 19 19 18 16 15 15 16 17 18 18 20 21 21 22 22 22 22 21 21 20 20 20 20 20 20 20 19 20 20 19 18 18 18 18 18 19 20 21 22 22 22 22 22 22 23 23 23 23 23 23 23 23 20 18 17 19 21 23 23 23 23 23 25 30 34 36 36 36 36 35 34 33 32 29 28 28 29 29
20 21 21 22 22 22 20 19 18 17 16 15 15 15 16 16 17 18 20 21 22 22 22 22 21 21 21 20 20 20 20 20 20 20 20 20 20 19 19 18 19 19 19 19 19 20 22 23 24 23 23 22 23 23 23 23 23 22 22 22 20 20 20 21 22 23 23 22 23 24 27 31 34 35 37 38 37 35 35 34 32 30 30 30 30
21 20 20 21 21 20 19 18 17 16 15 14 14 14 15 15 16 18 19 20 21 22 22 22 22 21 21 21 21 21 21 21 20 19 19 20 20 20 20 20 20 20 20 20 20 21 22 23 24 24 24 24 25 26 26 26 25 24 23 23 23 23 23 23 23 24 23 23 23 24 25 28 31 32 35 37 38 38 36 35 35 34 33 32 30
20 19 20 20 18 17 17 17 16 15 14 14 14 14 14 15 16 17 18 19 21 21 22 22 22 21 21 21 21 21 21 21 20 20 19 20 20 20 20 20 20 20 21 22 22 22 22 23 23 24 24 26 27 28 28 28 28 27 27 26 27 26 26 26 26 26 26 25 25 25 26 27 28 29 30 32 36 39 38 36 35 34 33 33 30
18 18 18 18 16 15 15 15 14 14 13 13 13 14 14 14 15 16 18 19 20 20 21 21 20 20 20 20 20 19 19 20 20 20 19 19 19 20 20 21 21 21 21 21 21 21 22 23 23 24 25 26 28 28 29 29 29 29 29 29 29 28 27 27 27 27 27 27 27 27 27 28 28 28 28 28 30 35 37 37 37 35 33 31 30
18 17 17 17 15 14 14 13 13 12 12 12 13 13 14 14 15 16 17 18 19 20 20 19 19 19 18 18 18 17 17 18 18 18 18 18 18 18 18 19 20 20 20 20 20 20 21 22 22 23 24 26 27 28 29 29 29 29 29 29 29 29 28 28 28 28 28 28 29 29 29 29 29 29 29 28 27 29 33 34 36 37 37 35 34
19 17 16 16 14 13 13 13 12 12 11 11 12 12 13 14 14 15 16 17 18 18 19 19 18 18 17 17 16 16 16 16 16 16 16 16 16 16 16 17 18 19 19 19 19 19 19 20 20 21 23 24 26 27 27 27 27 28 28 28 28 28 27 27 27 28 27 28 29 29 30 30 29 28 28 28 26 27 29 31 31 33 36 37 37
19 17 15 15 15 14 14 14 14 13 12 12 11 12 12 13 14 15 16 16 17 17 18 18 18 17 16 16 15 15 15 15 15 15 15 15 15 15 15 15 16 17 17 18 18 18 18 18 18 19 20 22 23 24 25 25 25 26 26 26 27 27 26 25 25 26 26 26 27 28 29 29 28 27 27 27 26 26 27 28 28 28 29 30 32
19 18 17 17 17 16 16 16 16 15 14 13 13 13 13 14 14 15 16 17 17 17 18 18 18 17 17 16 15 15 15 15 15 15 15 15 15 15 15 14 14 15 15 15 16 16 17 17 17 17 18 19 20 21 22 22 22 23 23 24 24 24 24 24 24 24 24 25 25 26 27 27 27 26 27 27 27 27 26 27 28 28 28 29 30
18 18 18 18 18 17 17 18 18 17 16 15 15 15 15 15 16 16 17 17 17 17 17 17 18 18 17 17 16 15 14 14 14 14 15 15 16 15 15 15 14 14 14 14 15 15 16 16 16 16 16 17 17 18 19 19 19 20 20 21 21 22 22 21 22 22 23 23 24 24 25 25 25 25 26 27 27 27 27 28 28 29 31 31 30
16 16 17 17 17 18 18 18 17 17 16 16 15 15 16 16 17 17 18 18 18 18 17 16 17 17 18 17 17 15 14 14 13 13 14 14 15 16 16 16 15 15 15 15 15 15 15 16 16 16 16 16 17 17 17 17 18 18 18 19 19 19 19 19 19 19 20 21 22 22 23 23 23 24 24 26 26 27 27 27 26 25 26 27 27
16 16 17 17 17 17 16 16 16 17 17 16 16 16 16 16 17 17 18 18 18 18 18 17 16 16 16 17 17 17 16 15 14 14 14 14 14 15 15 15 16 16 16 16 16 16 16 16 16 16 17 17 17 17 18 18 18 18 18 18 18 18 18 17 17 17 17 18 18 19 20 20 21 21 21 22 23 24 24 24 23 22 21 21 22
17 18 18 17 17 16 16 17 18 18 19 18 18 18 18 18 18 18 18 18 18 17 17 17 17 16 16 16 16 17 17 16 15 14 14 14 14 14 14 15 16 16 17 17 17 17 17 17 17 17 17 17 18 19 19 20 20 20 20 20 20 19 19 18 18 18 17 17 17 17 17 18 18 18 19 19 19 20 20 20 20 19 19 19 19
16 18 19 19 18 17 17 17 19 20 20 20 21 21 22 21 20 19 18 18 18 18 17 17 17 17 17 16 16 17 17 17 17 16 16 15 15 15 15 15 16 17 17 18 18 18 18 18 18 18 18 18 19 19 20 21 21 22 22 22 22 22 21 21 20 20 19 19 18 18 18 18 18 18 19 19 19 19 18 18 18 18 18 18 18
16 17 19 20 20 19 18 18 19 20 20 20 21 22 23 23 22 21 20 21 21 20 19 18 18 19 19 19 18 18 18 19 19 19 18 18 18 17 18 18 18 18 19 19 19 19 19 19 20 20 20 20 21 21 22 22 23 23 24 24 24 24 24 24 23 22 22 22 21 21 21 21 21 21 21 21 21 21 20 20 20 19 19 20 20
16 17 18 20 21 21 19 19 19 20 20 20 22 23 23 23 23 23 22 22 23 22 22 21 21 21 21 21 20 20 20 20 20 21 21 20 20 20 20 21 21 22 22 21 21 21 21 21 22 22 22 22 23 23 24 24 25 25 26 26 26 26 26 26 26 26 26 25 25 25 24 24 24 24 24 23 23 23 23 23 22 22 22 22 22
19 18 18 19 21 21 20 19 20 22 23 23 23 24 24 24 25 25 24 24 24 24 24 24 23 22 22 21 21 20 20 20 21 22 22 22 23 23 24 24 24 25 25 25 25 24 24 24 24 24 24 25 25 25 26 26 27 27 27 28 28 28 28 28 28 28 28 28 28 27 27 26 26 26 26 25 25 25 25 25 24 24 24 24 23
22 21 20 21 22 23 24 25 26 27 27 26 23 23 24 24 24 26 27 27 27 27 26 26 24 22 22 21 20 20 21 21 22 22 22 23 22 23 25 26 27 28 28 28 28 28 28 28 27 27 27 27 28 28 28 29 29 29 29 30 30 29 30 30 30 29 30 30 30 29 29 28 28 28 27 27 27 27 27 26 26 26 26 26 25
25 24 24 24 25 27 28 30 31 30 29 28 27 26 27 26 26 26 28 29 29 28 27 26 25 23 22 22 21 22 23 23 24 24 25 25 24 23 25 25 27 30 31 31 31 32 31 31 31 31 31 31 31 31 32 33 33 32 32 32 32 32 32 32 32 31 31 32 32 32 32 31 31 31 31 31 31 31 31 30 30 30 30 29 29
28 28 28 29 30 31 31 32 33 33 32 32 31 30 30 30 29 28 29 29 29 28 28 27 27 27 26 27 28 29 29 29 30 30 30 31 30 30 31 30 30 31 32 32 33 34 34 34 34 34 34 34 34 35 36 36 37 36 35 35 35 35 35 35 35 34 34 35 36 35 35 35 35 36 36 35 35 36 36 36 35 35 35 34 34
32 32 32 33 33 34 34 35 35 35 35 34 33 32 30 30 31 31 31 32 31 32 32 31 31 32 32 34 35 36 36 35 35 35 35 35 36 36 37 37 36 35 35 35 36 36 37 37 37 37 38 38 38 38 39 40 40 40 39 39 39 39 38 39 39 38 37 38 39 39 39 39 39 39 40 39 39 39 40 40 39 39 39 39 38
37 38 38 38 38 38 38 38 38 38 37 37 36 33 31 31 33 34 34 34 34 35 35 35 36 36 37 38 39 40 39 38 38 38 38 39 39 39 41 41 41 40 40 41 42 42 42 41 40 40 41 41 42 42 43 44 43 43 43 43 43 43 43 42 43 43 42 42 43 44 44 44 44 43 44 43 42 42 43 43 43 42 41 41 41
42 42 42 43 42 41 40 40 40 39 39 39 38 36 35 34 35 35 36 36 37 37 38 39 40 41 42 42 42 41 40 39 38 38 39 40 39 40 41 42 43 43 43 44 45 45 45 45 44 43 43 44 45 46 46 47 48 47 47 47 47 47 47 47 47 47 47 46 47 47 48 49 49 49 49 49 48 47 48 48 48 48 48 47 46
42 41 41 41 41 40 41 41 40 39 39 40 40 39 37 36 36 37 38 39 40 41 42 43 43 44 44 43 42 40 39 38 37 37 38 38 39 39 40 41 42 43 44 45 46 46 47 47 47 47 46 47 48 49 49 50 51 51 51 51 51 51 51 51 51 52 52 51 51 51 52 53 54 53 54 54 54 54 54 54 55 55 56 56 55
42 42 42 41 41 41 43 44 42 41 42 42 41 40 39 38 38 39 40 41 42 43 44 44 43 43 41 40 40 39 39 38 38 38 38 38 38 38 39 40 41 43 44 45 46 46 47 47 48 48 48 49 50 51 52 53 53 54 54 55 55 55 55 55 55 56 56 56 56 56 56 57 58 57 57 58 58 58 59 59 60 61 61 62 62
41 42 42 43 43 42 42 42 41 42 43 43 41 41 41 40 41 42 43 44 45 46 46 45 43 41 40 39 39 39 39 39 39 39 39 39 38 38 39 40 41 42 44 45 46 46 47 47 48 48 49 49 50 51 52 53 54 55 56 57 58 58 59 59 59 60 60 61 61 61 61 61 62 62 61 61 62 62 62 62 63 64 65 66 66
41 42 43 45 44 41 37 36 36 39 42 42 42 42 42 43 44 45 46 47 47 47 46 44 42 41 40 40 39 39 39 39 40 40 40 40 40 40 41 41 41 42 43 44 45 46 46 47 47 48 48 49 50 51 51 52 53 53 54 55 57 58 59 60 60 61 63 64 64 64 64 65 66 67 67 67 67 67 67 68 68 68 68 69 70
43 44 45 46 45 43 40 38 38 39 41 42 43 45 46 46 47 47 47 47 47 46 45 43 42 41 41 40 39 38 38 39 40 41 42 43 44 44 44 44 43 43 43 44 45 45 46 47 47 48 48 49 50 50 50 51 52 53 54 54 55 56 57 57 58 59 61 62 64 64 64 65 67 68 69 69 70 70 71 72 72 72 72 73 73
45 45 45 46 45 46 47 48 48 48 48 48 48 49 49 49 49 48 47 46 46 45 44 43 43 43 42 41 41 41 41 41 42 43 44 44 45 46 46 47 47 46 45 44 45 45 46 47 47 48 49 49 49 50 50 51 52 53 54 55 55 56 56 57 58 58 59 60 61 62 62 63 64 66 67 67 67 68 68 69 70 71 72 72 73
49 47 46 47 46 46 48 50 50 50 50 50 49 49 49 48 48 47 46 45 44 44 44 45 46 46 46 46 46 45 44 44 44 44 44 44 45 46 47 48 48 47 46 45 45 45 46 47 47 48 49 50 50 51 51 52 52 53 54 55 56 56 56 57 58 58 59 59 61 61 61 62 62 63 65 66 65 65 66 66 67 68 69 69 70
Wind_Direction
277 275 276 278 277 274 272 271 270 272 272 270 265 259 254 251 250 250 249 246 242 239 237 234 234 236 239 241 243 245 246 247 247 248 250 251 252 252 251 251 252 254 255 254 254 254 253 252 253 252 250 250 251 250 248 245 243 243 243 243 242 240 238 236 235 236 236 234 232 231 230 229 228 227 226 225 225 224 222 219 217 216 215 214 215
277 279 281 282 281 277 272 269 269 273 275 272 266 260 255 253 252 252 252 249 244 240 238 235 234 235 238 241 243 245 247 248 248 249 250 251 252 252 252 252 251 252 253 253 253 253 253 252 253 253 252 251 251 252 252 251 248 246 245 245 246 245 243 241 238 237 238 238 237 235 233 231 230 229 228 227 228 228 226 224 222 220 219 218 218
281 288 291 286 284 285 282 276 273 274 276 273 266 262 260 257 254 254 253 249 244 241 239 237 235 235 238 241 243 244 246 248 249 250 252 252 252 252 253 253 253 252 251 252 252 253 253 253 253 253 252 252 251 251 251 252 250 249 248 247 247 247 247 246 244 241 238 238 239 239 237 235 233 231 230 230 230 231 230 229 226 224 222 221 221
282 292 294 289 285 284 284 283 277 273 274 271 266 266 265 261 257 255 253 249 245 244 242 240 239 238 239 240 242 243 244 246 248 250 251 253 252 252 254 254 252 251 251 252 253 253 254 254 253 253 254 254 253 252 250 250 249 248 248 248 248 248 248 248 247 245 241 239 238 239 239 238 236 235 234 233 232 233 233 232 230 227 224 224 224
287 297 295 292 288 281 283 287 281 275 274 271 268 268 266 264 262 258 254 251 248 246 245 244 243 245 245 244 244 244 244 245 247 249 251 253 253 252 254 255 250 247 250 252 252 253 253 254 254 255 259 260 257 254 251 250 249 248 248 247 247 247 247 247 246 246 244 241 238 237 238 239 238 237 237 236 236 235 235 234 233 231 229 228 228
292 298 293 291 290 285 287 289 283 280 278 275 273 271 267 267 267 262 256 253 250 247 246 247 248 250 251 249 247 247 247 247 248 250 252 254 254 254 255 257 252 246 247 250 251 252 252 254 258 261 265 265 261 257 253 251 250 250 249 248 246 246 247 246 245 245 245 243 240 238 237 238 239 238 238 238 238 238 238 237 236 236 234 233 233
292 294 289 288 291 288 287 287 284 282 282 280 278 272 267 267 266 261 258 255 250 247 247 249 250 252 253 253 251 250 251 251 251 251 253 254 256 257 256 257 253 244 244 248 250 253 254 255 261 265 266 265 264 260 255 253 252 252 252 251 250 248 248 248 247 246 246 245 244 241 239 238 239 239 238 237 239 241 241 240 240 240 240 239 238
288 288 284 284 288 289 288 287 285 284 285 283 279 273 268 267 264 260 260 257 252 249 249 250 252 253 254 254 254 254 253 253 253 253 254 255 256 258 257 256 251 242 243 250 254 256 255 256 260 263 263 262 262 261 258 255 254 254 254 255 255 254 252 250 249 248 247 246 246 245 243 241 240 240 240 239 239 241 243 244 243 244 244 245 244
285 284 281 280 281 283 284 286 285 285 286 283 279 275 271 267 261 260 261 259 257 255 254 254 255 256 256 256 256 255 255 254 255 256 256 257 258 260 259 256 251 246 246 250 254 257 256 255 257 260 260 259 258 258 257 256 255 256 256 257 258 257 256 254 252 251 249 248 247 246 246 245 243 243 243 242 241 242 244 246 246 247 248 249 250
287 285 282 280 280 281 283 286 286 286 286 284 282 278 274 269 264 263 263 262 261 260 259 258 258 258 258 258 257 256 254 254 254 256 258 258 260 263 263 259 255 252 251 251 253 258 260 258 256 257 256 255 255 256 255 255 256 256 256 257 258 258 257 255 254 253 252 251 249 248 248 247 247 246 246 246 246 246 246 248 249 250 251 252 253
286 284 281 280 280 280 281 282 282 282 282 282 284 282 278 273 269 266 265 264 262 263 262 261 260 261 260 259 259 258 256 254 254 255 255 257 258 262 264 263 259 257 256 255 255 258 262 264 262 260 257 252 250 253 255 255 255 255 256 256 257 257 257 257 255 254 254 253 252 250 249 249 250 250 250 250 251 250 250 251 252 253 254 255 256
282 279 277 275 274 273 273 275 276 277 277 278 281 283 278 271 268 266 264 261 260 263 262 262 263 262 261 259 259 261 260 257 255 253 254 255 257 259 263 266 264 263 261 259 260 261 263 265 266 266 265 260 255 253 254 254 253 253 254 254 254 255 256 257 256 255 255 254 252 252 251 251 252 253 253 253 253 253 253 253 254 255 256 257 257
281 279 278 275 271 269 269 270 272 274 277 278 279 281 278 272 268 265 262 257 257 261 261 262 262 260 259 258 258 263 265 263 261 257 255 255 257 259 262 265 265 265 264 263 263 264 263 264 266 267 268 268 265 262 257 254 253 251 252 253 253 253 253 254 254 253 253 253 252 251 251 251 252 252 253 253 253 253 253 254 255 256 257 258 258
283 280 279 277 274 271 269 268 269 272 275 277 278 278 277 274 271 266 261 257 256 259 259 259 259 259 260 260 260 263 265 266 265 263 260 258 258 259 260 262 264 265 265 266 266 266 265 266 266 266 267 267 266 266 262 257 252 249 249 250 253 254 253 252 251 251 250 250 250 249 249 250 251 251 251 252 252 252 252 253 253 254 255 256 257
285 283 281 277 274 273 273 271 269 270 272 274 275 276 276 274 272 268 264 259 257 258 258 258 260 261 261 262 264 265 265 267 267 266 264 263 262 262 263 264 264 265 265 266 267 268 268 267 266 266 267 266 265 266 268 265 257 251 250 251 254 256 255 252 250 250 249 248 248 248 248 249 250 250 250 250 250 251 251 251 252 253 253 254 254
282 283 282 279 274 270 270 271 269 269 270 272 273 275 275 274 272 269 265 262 260 260 259 259 260 262 263 263 265 266 267 272 274 269 265 265 266 266 265 265 266 267 267 267 268 271 272 271 270 269 267 266 265 266 270 270 265 260 256 254 254 255 257 255 251 249 249 250 249 248 248 247 248 249 250 250 250 250 251 251 252 253 253 253 253
279 279 282 283 282 277 272 270 270 269 269 270 271 273 274 274 273 270 266 262 260 260 260 260 260 262 264 266 268 268 269 273 274 272 271 270 269 269 268 267 268 269 268 268 270 273 276 275 272 270 268 266 264 265 268 269 268 264 260 258 258 259 260 261 257 251 249 250 250 249 248 247 247 248 249 250 251 252 252 253 253 253 254 255 255
275 276 279 284 288 289 285 280 276 275 273 271 270 271 273 274 273 271 268 265 261 259 259 259 260 261 263 266 267 268 270 273 272 274 274 269 267 269 270 271 271 271 270 270 270 271 275 277 275 273 273 273 270 268 268 269 270 267 265 265 261 258 259 262 263 260 256 253 250 249 248 247 247 248 248 249 251 253 254 254 254 254 254 254 255
271 271 271 279 291 297 295 288 282 280 278 276 273 272 273 274 274 272 271 268 266 263 262 261 261 262 263 264 266 266 269 270 270 273 267 259 264 268 269 272 274 273 273 272 271 272 273 273 274 274 274 276 277 275 270 269 271 271 272 270 261 256 258 260 263 265 265 259 252 248 247 247 247 247 247 247 248 250 251 252 252 253 253 253 252
273 273 270 275 288 297 297 291 284 281 280 279 277 274 273 274 274 274 273 272 270 269 268 267 265 266 266 266 267 267 267 266 266 268 263 260 267 269 269 273 274 274 274 272 271 272 269 267 268 273 278 280 280 277 270 267 269 273 276 275 267 262 261 262 263 265 266 263 256 249 246 246 246 245 248 248 246 247 247 248 248 250 252 253 253
274 276 277 280 288 295 296 289 282 280 280 280 279 278 277 277 277 277 276 276 274 273 272 272 271 270 270 270 269 266 265 263 262 262 261 263 267 267 269 272 272 272 271 270 271 270 269 268 268 271 275 277 276 274 271 270 270 272 278 284 282 275 268 264 264 264 265 266 261 253 247 246 246 246 248 249 248 247 247 247 248 248 248 248 249
273 276 279 284 288 292 292 285 279 277 279 280 281 281 282 283 284 283 282 281 280 279 278 276 275 274 272 271 269 267 264 261 260 259 258 261 263 264 265 268 269 270 269 269 270 269 269 269 269 270 271 273 272 271 271 274 275 274 277 281 283 282 276 268 262 261 263 265 264 259 252 249 248 248 249 250 250 251 250 250 251 250 249 247 247
273 275 280 284 287 289 288 282 276 274 276 280 282 283 283 285 287 287 287 285 284 282 281 280 278 276 273 271 269 267 264 262 260 259 258 260 260 261 261 263 266 267 267 267 267 268 267 266 267 268 270 270 269 268 270 273 276 276 276 276 277 279 277 272 267 264 264 264 264 263 260 256 253 251 251 251 252 254 255 255 254 254 253 251 249
274 276 280 283 285 285 285 281 276 274 276 279 283 285 286 287 288 289 289 287 285 282 280 279 277 275 273 271 269 268 266 265 263 261 259 259 258 259 260 261 263 265 265 264 265 267 267 265 266 267 267 265 265 267 269 272 273 273 272 273 275 276 275 273 271 269 268 267 265 264 264 263 260 258 256 254 252 252 254 255 255 256 255 253 252
276 277 279 279 279 281 284 283 279 279 279 281 284 286 288 290 291 292 291 289 286 283 281 279 277 276 274 272 270 269 267 267 266 264 261 260 259 259 260 261 262 263 264 265 266 267 267 267 268 268 267 266 267 268 270 272 272 272 272 272 273 273 272 270 269 269 269 268 267 266 265 265 265 264 263 260 255 251 251 254 255 256 256 253 252
279 277 277 273 272 277 283 284 284 284 284 286 288 289 291 293 294 294 293 290 286 284 282 280 278 277 275 274 272 271 269 268 268 266 263 262 261 260 261 263 264 265 266 267 267 267 267 267 267 266 266 266 268 269 270 271 272 272 272 272 272 271 269 267 266 266 266 266 266 266 266 267 267 267 268 266 261 255 253 253 255 256 256 253 253
278 275 273 267 266 274 280 283 284 285 287 289 291 293 295 296 297 297 295 292 288 286 283 281 280 278 276 275 273 272 270 269 268 268 267 266 265 264 264 265 267 268 269 270 271 270 270 269 268 267 267 266 267 268 269 269 269 270 270 271 271 270 269 268 266 265 264 264 264 265 266 267 267 267 268 268 267 263 259 257 255 255 255 256 259
275 271 269 263 263 269 275 279 279 279 281 284 288 291 293 295 296 295 294 291 289 286 284 282 280 278 277 276 275 274 273 272 271 271 270 270 269 268 268 268 269 270 271 272 273 273 272 272 271 270 270 269 268 269 269 269 269 268 269 270 270 270 270 268 267 266 264 263 263 264 264 265 265 266 266 267 268 268 266 263 261 259 258 259 262
269 267 264 260 260 266 272 277 278 276 275 276 280 283 286 290 292 292 292 289 288 285 283 281 278 277 275 275 275 276 276 276 275 275 274 272 272 271 271 271 271 272 273 273 274 275 276 275 273 272 272 271 271 271 271 270 270 269 269 269 269 270 270 268 266 265 264 262 261 262 262 263 263 262 262 263 264 266 267 266 265 264 261 260 263
267 264 260 260 263 268 274 278 278 275 271 268 270 273 276 280 283 285 286 286 287 286 284 282 279 277 275 274 274 274 274 275 276 276 276 275 274 273 272 272 272 273 274 274 275 277 278 278 277 275 273 272 272 272 273 272 271 269 268 268 268 269 268 267 265 263 262 261 260 260 260 260 260 260 259 260 261 264 266 266 265 264 261 260 263
266 259 257 262 267 272 275 277 276 272 267 265 264 266 268 271 273 276 278 279 281 283 284 285 283 281 278 275 273 272 272 272 272 273 273 274 273 272 271 271 271 272 272 273 274 275 277 279 279 279 278 275 274 273 274 274 273 271 269 267 267 267 267 266 264 262 261 260 259 259 258 258 258 258 259 260 262 263 265 264 262 259 257 256 257
268 262 262 266 269 272 274 274 272 269 266 265 265 266 267 269 272 273 274 275 275 275 277 279 282 284 282 279 275 271 269 267 267 267 268 269 271 271 271 270 269 269 269 270 271 273 274 276 277 278 279 278 277 275 275 275 274 273 271 270 268 267 266 265 263 261 259 259 258 258 258 258 258 258 258 260 262 264 266 267 264 260 256 253 251
274 272 271 270 270 270 269 267 266 264 264 264 264 266 267 268 270 271 272 272 273 273 272 272 273 276 279 280 279 275 271 268 265 264 265 266 268 270 271 270 269 268 267 266 267 267 269 270 272 274 276 277 277 276 275 274 273 272 271 271 270 268 267 266 264 262 259 258 258 258 258 258 259 259 259 259 261 264 268 271 271 269 267 264 263
277 277 277 275 273 270 265 261 259 259 261 264 265 266 266 266 266 266 267 268 268 268 269 269 268 267 269 273 276 277 274 272 269 267 266 265 266 267 269 270 270 269 268 267 266 265 264 265 267 268 270 272 273 274 274 274 273 273 271 271 270 269 267 265 265 263 261 259 258 258 258 258 259 260 260 261 262 264 266 269 271 272 272 273 272
279 281 282 280 277 274 268 261 258 258 259 262 264 264 264 263 262 262 262 262 261 261 262 264 266 266 265 267 270 274 275 274 273 272 271 269 266 266 265 266 267 268 268 268 267 266 265 265 265 265 265 267 268 270 271 272 273 273 272 271 270 269 268 266 264 263 262 260 258 257 257 257 258 258 260 260 261 262 263 265 266 267 268 269 270
278 282 284 283 280 278 272 262 256 256 258 260 263 264 264 263 261 259 259 258 256 256 254 256 261 265 266 266 266 268 270 273 276 277 277 275 273 271 269 267 266 266 266 267 267 267 267 266 265 264 263 264 265 266 267 268 270 270 271 271 270 270 269 268 266 264 263 261 260 258 257 257 257 257 258 259 259 260 260 261 261 262 263 264 265
276 281 284 285 283 280 274 265 257 255 258 262 265 266 265 263 260 257 256 255 254 251 251 255 261 264 264 264 264 264 265 268 271 274 275 276 276 275 274 272 270 269 268 267 266 266 266 265 265 264 263 263 263 264 264 265 265 266 267 268 269 269 269 269 269 268 266 265 263 262 260 259 258 258 258 258 259 259 258 258 259 259 259 260 261
274 278 282 283 282 279 274 270 265 262 263 265 267 266 264 260 258 256 254 253 251 250 253 259 262 262 263 263 264 264 264 265 266 270 273 274 275 277 277 275 274 273 272 270 269 267 266 266 265 265 265 264 264 263 263 263 263 263 264 264 265 266 266 267 267 268 267 266 265 264 263 261 260 259 258 258 258 258 257 257 256 256 256 256 256
274 276 277 278 278 276 275 276 275 272 270 268 267 266 264 261 258 255 253 252 251 252 257 262 262 260 261 263 266 267 266 266 266 267 270 271 275 280 280 277 276 276 275 276 275 273 271 270 268 267 267 267 266 265 264 263 262 261 261 261 262 262 263 263 264 264 265 264 264 263 263 263 262 261 260 260 259 259 258 257 257 257 257 256 257
271 273 274 273 272 271 272 274 275 274 271 268 265 263 262 261 260 256 253 252 253 255 258 261 261 259 258 261 266 269 270 269 267 266 266 267 268 270 272 272 273 272 273 275 276 276 275 274 272 271 270 269 269 268 266 265 264 263 262 261 262 261 261 261 260 260 261 262 261 261 261 262 262 262 260 260 261 261 260 259 259 260 260 259 260
268 269 270 270 270 270 269 270 271 271 270 267 264 261 261 261 260 256 253 252 253 255 257 259 259 258 258 261 265 268 270 271 270 268 268 268 265 262 262 264 266 267 268 269 271 272 274 275 275 275 274 273 272 271 269 268 267 266 265 264 264 263 262 261 260 259 259 260 260 259 258 259 260 261 260 259 259 260 260 260 259 260 260 260 261
269 268 268 267 267 267 266 265 265 265 266 264 261 258 259 260 259 257 255 254 254 255 256 258 258 259 261 263 266 270 271 271 271 271 270 268 265 263 262 263 264 266 267 267 267 268 269 270 272 274 275 274 274 273 272 271 270 269 268 267 266 265 264 264 263 262 260 261 261 260 258 258 259 260 260 259 259 258 259 258 258 258 258 258 259
271 271 270 268 267 265 264 263 262 261 259 256 253 252 252 254 255 256 256 256 256 257 258 259 261 263 265 266 268 270 272 271 270 270 269 267 266 264 263 263 264 266 268 269 269 268 268 267 267 269 270 271 272 272 272 272 271 271 270 269 268 267 266 266 266 266 264 263 264 263 262 261 260 260 262 261 260 260 260 259 258 257 256 256 256
271 271 271 270 268 266 263 261 260 258 254 250 247 247 248 249 252 254 256 257 258 260 261 263 264 266 268 269 270 270 271 271 270 269 268 267 266 265 264 265 266 267 269 270 271 270 270 269 267 267 267 268 268 268 269 270 270 270 270 270 269 268 268 267 267 267 266 266 266 266 266 265 263 262 263 263 262 262 263 262 261 261 260 259 259
270 269 270 269 268 266 265 262 260 257 254 251 249 249 250 251 253 256 258 260 261 262 263 264 265 267 268 269 270 270 271 271 270 269 267 266 266 266 266 267 268 269 269 270 271 271 272 272 271 270 269 268 267 266 266 267 268 269 269 270 270 269 269 269 268 268 268 267 267 266 266 267 266 265 264 264 264 263 264 264 264 265 265 265 265
269 268 268 267 267 268 267 264 258 254 253 253 252 252 253 254 257 259 261 263 264 265 265 266 266 267 268 268 269 270 270 269 268 267 267 267 268 269 270 271 271 271 271 272 272 272 273 274 274 274 272 271 270 268 267 266 267 268 268 268 269 269 269 269 269 270 269 269 269 269 268 268 267 266 265 265 265 265 265 265 265 266 266 267 268
269 269 268 268 267 267 266 264 258 253 253 254 254 254 255 257 260 262 263 264 265 265 266 267 267 267 268 269 270 270 270 269 268 268 268 269 270 273 275 277 277 276 276 275 275 275 275 275 276 275 275 274 273 272 271 270 269 269 269 269 269 269 269 269 269 270 270 270 270 271 271 270 270 269 267 267 266 266 266 266 266 266 266 266 267
267 269 270 269 265 262 261 262 258 254 252 253 254 256 258 260 263 265 266 266 266 265 265 266 266 267 268 270 271 271 272 272 271 271 271 272 273 275 277 280 280 280 279 279 278 278 278 278 277 277 277 276 275 275 274 274 274 273 272 271 271 270 270 270 271 271 271 271 271 271 271 271 271 271 270 269 269 268 268 269 269 268 268 268 268
268 269 270 268 263 255 251 251 252 253 254 255 258 261 263 264 265 267 267 266 265 264 263 264 264 266 267 270 271 272 272 272 272 271 272 272 273 275 277 280 281 282 281 280 279 279 280 280 280 279 279 278 277 277 277 277 276 276 275 275 274 273 273 273 272 273 272 273 272 272 272 272 271 271 271 271 271 271 271 271 271 270 269 269 269
269 270 269 265 259 253 249 249 251 254 256 259 262 264 265 266 266 265 265 263 262 262 262 263 264 265 267 269 270 270 271 271 271 271 273 274 274 276 277 280 282 283 282 281 281 281 281 281 281 281 281 280 280 279 279 278 277 277 277 277 276 276 275 275 275 275 274 274 274 274 274 274 273 273 272 272 272 272 272 272 273 272 272 271 271
270 269 267 263 258 253 251 250 252 255 258 260 262 262 263 263 263 263 262 261 260 261 263 264 265 265 267 268 268 269 269 270 271 272 274 276 278 279 281 282 283 283 283 283 282 282 282 282 282 282 281 281 281 280 280 279 279 278 278 278 277 277 277 276 276 276 276 276 276 275 275 275 275 275 275 274 274 274 274 274 274 274 274 274 274
Height
5807 5807 5806 5806 5806 5806 5806 5805 5805 5805 5805 5806 5807 5807 5808 5809 5810 5811 5812 5813 5814 5814 5815 5816 5816 5816 5816 5816 5816 5817 5817 5818 5818 5818 5818 5819 5820 5822 5824 5825 5826 5827 5827 5828 5829 5830 5831 5832 5833 5834 5834 5835 5836 5837 5837 5838 5839 5840 5840 5841 5842 5843 5844 5844 5845 5845 5846 5846 5847 5847 5848 5849 5850 5850 5851 5852 5852 5853 5853 5853 5853 5853 5854 5854 5854
5805 5805 5805 5805 5805 5804 5804 5803 5803 5803 5803 5804 5805 5806 5806 5807 5808 5809 5810 5811 5812 5813 5814 5814 5814 5814 5814 5814 5815 5815 5816 5816 5816 5816 5816 5817 5818 5820 5821 5823 5824 5825 5825 5826 5826 5827 5828 5830 5831 5831 5832 5833 5834 5835 5836 5836 5837 5838 5838 5839 5840 5841 5842 5842 5843 5844 5844 5845 5845 5846 5846 5847 5848 5849 5849 5850 5850 5851 5851 5852 5852 5852 5852 5853 5853
5803 5803 5804 5804 5803 5803 5802 5801 5802 5802 5802 5802 5803 5804 5805 5805 5806 5807 5808 5809 5810 5811 5812 5812 5813 5813 5813 5813 5813 5814 5814 5814 5814 5815 5815 5815 5817 5818 5819 5820 5821 5822 5823 5823 5824 5825 5826 5827 5828 5828 5829 5830 5831 5832 5833 5834 5835 5836 5836 5837 5838 5838 5839 5840 5841 5842 5843 5843 5844 5844 5845 5845 5846 5847 5847 5848 5849 5849 5850 5850 5850 5851 5851 5851 5851
5802 5803 5803 5802 5802 5802 5801 5801 5800 5801 5801 5801 5802 5802 5803 5803 5804 5805 5806 5807 5808 5809 5810 5811 5812 5812 5812 5812 5812 5812 5812 5812 5813 5813 5813 5814 5815 5816 5817 5818 5818 5819 5820 5821 5822 5823 5823 5824 5825 5825 5826 5827 5828 5830 5831 5831 5832 5833 5834 5835 5835 5836 5837 5838 5839 5840 5841 5841 5842 5842 5843 5843 5844 5845 5846 5846 5847 5847 5848 5848 5849 5849 5849 5850 5850
5801 5802 5802 5801 5801 5800 5800 5799 5799 5799 5800 5800 5801 5801 5801 5801 5802 5803 5804 5805 5806 5807 5808 5809 5810 5811 5811 5811 5811 5811 5811 5811 5811 5811 5812 5812 5813 5814 5815 5815 5816 5816 5817 5818 5819 5820 5821 5822 5822 5823 5824 5825 5825 5826 5827 5828 5829 5830 5831 5832 5833 5834 5835 5835 5836 5837 5838 5839 5839 5840 5841 5841 5842 5843 5844 5844 5845 5845 5846 5846 5847 5847 5848 5848 5848
5800 5801 5801 5800 5800 5799 5799 5798 5798 5798 5798 5798 5799 5800 5800 5800 5800 5801 5802 5803 5804 5806 5807 5808 5809 5809 5810 5810 5810 5810 5810 5810 5810 5810 5810 5811 5811 5812 5812 5813 5814 5814 5815 5816 5817 5818 5819 5819 5820 5821 5822 5822 5822 5823 5824 5825 5826 5827 5828 5829 5830 5831 5832 5832 5833 5834 5835 5836 5837 5838 5839 5839 5840 5841 5841 5842 5843 5843 5844 5844 5845 5845 5846 5846 5847
5798 5799 5799 5798 5798 5798 5798 5798 5797 5798 5797 5797 5797 5798 5798 5798 5799 5800 5800 5801 5802 5803 5805 5806 5807 5807 5808 5809 5809 5809 5809 5809 5809 5808 5809 5809 5809 5810 5810 5811 5811 5811 5812 5814 5814 5816 5817 5817 5818 5818 5819 5819 5819 5820 5821 5822 5823 5824 5825 5826 5827 5828 5829 5829 5830 5831 5832 5833 5834 5835 5836 5837 5838 5839 5839 5840 5840 5841 5841 5842 5843 5843 5844 5844 5845
5797 5797 5797 5796 5797 5797 5797 5797 5797 5796 5796 5796 5795 5796 5797 5797 5798 5798 5798 5798 5800 5801 5802 5804 5805 5805 5806 5807 5807 5808 5808 5807 5807 5807 5807 5807 5807 5808 5808 5809 5809 5810 5811 5812 5812 5813 5814 5815 5815 5815 5815 5816 5816 5817 5818 5819 5820 5821 5822 5823 5824 5825 5826 5826 5827 5828 5829 5830 5831 5832 5833 5835 5836 5836 5837 5838 5838 5839 5839 5840 5841 5841 5842 5842 5843
5795 5795 5795 5795 5796 5796 5796 5796 5796 5795 5795 5794 5794 5795 5796 5796 5796 5796 5796 5797 5798 5800 5801 5802 5803 5804 5804 5805 5806 5806 5806 5806 5806 5806 5806 5806 5806 5806 5807 5807 5808 5809 5810 5811 5811 5811 5812 5812 5812 5812 5812 5812 5812 5813 5814 5815 5817 5818 5819 5820 5821 5822 5823 5823 5824 5825 5826 5827 5828 5829 5830 5832 5833 5834 5835 5835 5836 5836 5837 5837 5838 5839 5839 5840 5840
5793 5793 5794 5794 5794 5795 5795 5795 5794 5794 5794 5793 5793 5794 5795 5795 5794 5795 5795 5796 5797 5799 5800 5801 5801 5802 5803 5803 5804 5804 5804 5805 5804 5804 5804 5804 5805 5805 5805 5806 5807 5807 5808 5810 5810 5810 5809 5810 5810 5809 5808 5808 5808 5810 5811 5812 5814 5815 5816 5817 5818 5818 5819 5820 5821 5822 5823 5824 5825 5826 5827 5829 5830 5831 5832 5833 5834 5834 5835 5835 5836 5836 5837 5838 5838
5791 5792 5792 5792 5793 5793 5793 5793 5793 5793 5793 5793 5793 5793 5793 5793 5793 5794 5795 5795 5797 5797 5798 5799 5799 5800 5801 5801 5802 5802 5802 5803 5803 5803 5803 5803 5803 5804 5804 5804 5805 5806 5806 5808 5809 5808 5807 5806 5806 5806 5805 5805 5806 5807 5808 5809 5811 5812 5812 5813 5814 5815 5816 5817 5818 5819 5820 5821 5822 5824 5825 5826 5827 5828 5829 5830 5831 5832 5832 5833 5833 5834 5834 5835 5836
5790 5790 5791 5791 5792 5792 5792 5792 5792 5792 5792 5792 5792 5792 5792 5792 5792 5793 5794 5794 5795 5796 5797 5797 5798 5798 5799 5799 5800 5800 5800 5801 5801 5801 5801 5801 5802 5802 5802 5802 5803 5804 5805 5806 5806 5807 5806 5804 5803 5803 5802 5803 5804 5805 5805 5806 5807 5808 5809 5810 5810 5812 5813 5814 5815 5816 5817 5818 5820 5821 5822 5823 5824 5825 5826 5827 5828 5829 5829 5830 5830 5831 5832 5832 5833
5789 5789 5789 5789 5790 5790 5791 5791 5791 5790 5791 5791 5791 5791 5791 5791 5791 5792 5793 5793 5794 5795 5796 5796 5796 5797 5797 5798 5798 5798 5798 5799 5799 5799 5799 5800 5800 5800 5801 5801 5801 5802 5802 5803 5804 5804 5803 5802 5801 5800 5799 5800 5801 5802 5802 5803 5804 5805 5806 5806 5807 5808 5809 5810 5812 5813 5814 5815 5816 5817 5818 5819 5820 5821 5821 5822 5823 5824 5825 5826 5827 5828 5828 5829 5830
5787 5787 5787 5787 5788 5788 5788 5789 5789 5789 5789 5789 5789 5790 5790 5790 5790 5791 5791 5792 5793 5794 5794 5795 5795 5795 5796 5796 5796 5797 5797 5797 5797 5797 5797 5798 5798 5798 5799 5799 5799 5800 5800 5801 5801 5801 5801 5800 5800 5799 5798 5798 5799 5799 5799 5800 5801 5802 5802 5803 5804 5804 5805 5806 5807 5808 5809 5811 5812 5814 5814 5815 5816 5816 5817 5818 5819 5820 5821 5822 5823 5823 5824 5825 5826
5785 5785 5785 5786 5786 5786 5786 5786 5786 5787 5787 5787 5788 5788 5788 5788 5789 5789 5790 5790 5791 5792 5793 5793 5794 5794 5794 5795 5795 5795 5795 5796 5796 5796 5796 5795 5796 5796 5796 5797 5797 5798 5798 5799 5799 5798 5798 5798 5798 5797 5797 5797 5797 5797 5797 5797 5797 5798 5799 5799 5800 5801 5802 5803 5804 5805 5806 5806 5808 5810 5811 5811 5812 5812 5813 5813 5814 5815 5816 5817 5818 5819 5820 5821 5822
5784 5784 5784 5784 5784 5784 5784 5784 5784 5785 5785 5785 5786 5786 5787 5787 5787 5788 5788 5789 5790 5790 5791 5792 5792 5792 5792 5793 5793 5794 5793 5794 5793 5793 5793 5793 5793 5794 5794 5795 5795 5796 5796 5796 5796 5796 5796 5796 5796 5795 5795 5795 5795 5795 5795 5795 5795 5795 5795 5796 5797 5797 5798 5800 5800 5802 5803 5803 5804 5806 5807 5808 5808 5809 5809 5810 5810 5811 5812 5813 5814 5815 5816 5817 5818
5783 5783 5783 5783 5783 5783 5783 5783 5783 5783 5783 5784 5784 5785 5785 5785 5786 5786 5787 5788 5788 5789 5789 5790 5790 5790 5790 5791 5792 5792 5792 5792 5792 5790 5791 5792 5792 5792 5793 5793 5793 5794 5794 5794 5794 5794 5794 5795 5794 5794 5793 5794 5793 5793 5793 5794 5793 5793 5793 5794 5794 5794 5796 5797 5797 5798 5799 5800 5800 5801 5803 5804 5805 5805 5806 5806 5807 5808 5809 5810 5811 5812 5813 5814 5815
5782 5782 5781 5781 5781 5781 5781 5781 5781 5781 5782 5782 5782 5783 5783 5784 5784 5784 5785 5786 5786 5787 5787 5788 5788 5789 5789 5789 5790 5790 5790 5791 5790 5789 5790 5790 5790 5790 5790 5791 5791 5792 5792 5792 5792 5792 5793 5793 5793 5792 5792 5792 5792 5792 5792 5792 5792 5791 5791 5791 5792 5792 5794 5795 5795 5795 5796 5796 5797 5797 5799 5800 5801 5802 5803 5803 5804 5806 5806 5807 5808 5809 5809 5810 5811
5781 5781 5780 5780 5780 5780 5780 5780 5780 5780 5780 5780 5781 5781 5781 5782 5782 5783 5783 5784 5784 5785 5785 5786 5786 5786 5787 5787 5788 5788 5788 5788 5788 5788 5788 5788 5788 5788 5788 5789 5789 5790 5790 5790 5790 5791 5791 5791 5790 5789 5789 5790 5790 5791 5791 5790 5789 5788 5789 5789 5790 5790 5791 5791 5791 5792 5792 5793 5793 5794 5795 5796 5797 5799 5799 5800 5801 5802 5802 5803 5804 5805 5806 5806 5807
5779 5779 5779 5779 5779 5779 5779 5778 5778 5778 5778 5779 5779 5779 5780 5780 5781 5781 5781 5782 5782 5782 5783 5783 5784 5784 5784 5785 5785 5786 5786 5786 5786 5786 5786 5786 5786 5786 5787 5787 5787 5787 5788 5788 5788 5788 5788 5788 5787 5787 5788 5788 5788 5788 5787 5786 5786 5785 5786 5787 5787 5788 5788 5789 5789 5789 5790 5789 5789 5790 5791 5792 5794 5795 5795 5796 5797 5798 5798 5798 5799 5800 5802 5803 5804
5777 5777 5777 5777 5777 5777 5777 5777 5777 5776 5777 5777 5777 5778 5778 5779 5779 5780 5780 5780 5780 5780 5781 5781 5782 5782 5782 5782 5783 5783 5783 5784 5784 5784 5784 5784 5784 5784 5784 5785 5785 5785 5785 5785 5785 5786 5785 5785 5785 5785 5786 5787 5786 5785 5783 5783 5784 5784 5784 5785 5785 5786 5786 5787 5787 5787 5787 5787 5786 5787 5787 5788 5790 5791 5792 5792 5793 5794 5794 5795 5796 5797 5798 5798 5800
5776 5775 5775 5775 5775 5775 5775 5775 5775 5775 5775 5775 5775 5776 5776 5777 5777 5778 5778 5778 5778 5778 5779 5779 5780 5780 5780 5780 5780 5781 5781 5782 5782 5782 5782 5782 5782 5782 5782 5782 5782 5782 5782 5782 5783 5783 5783 5783 5782 5783 5783 5783 5783 5782 5781 5782 5782 5782 5782 5783 5783 5784 5784 5784 5784 5784 5784 5784 5784 5784 5784 5785 5786 5788 5789 5789 5789 5791 5792 5793 5794 5795 5794 5795 5796
5774 5774 5774 5773 5773 5773 5773 5773 5773 5773 5773 5773 5774 5774 5774 5775 5775 5776 5776 5776 5776 5776 5777 5777 5778 5778 5778 5778 5779 5779 5779 5779 5780 5780 5780 5780 5779 5779 5779 5779 5780 5780 5780 5780 5780 5780 5780 5780 5779 5780 5780 5780 5780 5779 5779 5779 5780 5780 5780 5780 5781 5781 5782 5782 5781 5781 5781 5781 5781 5781 5781 5782 5783 5785 5785 5785 5786 5788 5789 5790 5791 5792 5792 5792 5792
5773 5772 5772 5772 5771 5771 5771 5771 5771 5771 5771 5772 5772 5772 5772 5773 5773 5773 5774 5774 5774 5775 5775 5775 5776 5776 5776 5776 5776 5777 5777 5777 5777 5778 5778 5778 5777 5777 5777 5777 5777 5777 5777 5777 5777 5777 5778 5777 5777 5777 5777 5777 5777 5777 5777 5777 5777 5777 5778 5778 5778 5779 5779 5779 5779 5779 5779 5779 5779 5779 5779 5779 5780 5781 5781 5782 5783 5783 5784 5785 5786 5787 5788 5788 5789
5770 5770 5770 5770 5770 5770 5770 5770 5770 5770 5770 5770 5770 5770 5771 5771 5771 5771 5772 5772 5772 5773 5773 5773 5773 5774 5774 5774 5774 5774 5774 5774 5775 5775 5775 5775 5775 5775 5775 5774 5774 5774 5774 5775 5775 5775 5775 5775 5775 5775 5775 5775 5774 5774 5774 5774 5774 5774 5775 5775 5776 5776 5776 5776 5776 5777 5777 5777 5777 5777 5777 5777 5777 5777 5778 5778 5778 5778 5779 5780 5781 5783 5784 5784 5785
5768 5768 5768 5768 5768 5769 5769 5768 5768 5768 5768 5768 5768 5768 5769 5769 5769 5769 5770 5770 5770 5771 5771 5771 5771 5771 5771 5771 5772 5772 5772 5772 5772 5772 5772 5772 5772 5772 5772 5772 5772 5772 5772 5772 5772 5772 5772 5772 5772 5772 5772 5772 5772 5772 5771 5771 5771 5771 5772 5772 5772 5773 5773 5773 5773 5774 5774 5774 5774 5774 5774 5774 5774 5774 5774 5774 5774 5774 5775 5777 5778 5779 5780 5780 5782
5766 5766 5767 5767 5767 5767 5767 5767 5767 5766 5766 5766 5766 5767 5767 5767 5767 5768 5768 5768 5768 5769 5769 5769 5769 5769 5769 5769 5769 5770 5770 5770 5770 5770 5770 5770 5770 5770 5770 5770 5769 5769 5769 5769 5769 5769 5769 5769 5769 5769 5769 5769 5769 5768 5768 5768 5768 5768 5769 5769 5769 5769 5769 5770 5770 5770 5770 5770 5770 5770 5770 5770 5770 5770 5770 5771 5771 5771 5771 5773 5774 5775 5775 5776 5777
5764 5765 5765 5765 5765 5766 5766 5766 5765 5765 5765 5765 5765 5765 5765 5766 5766 5766 5766 5766 5767 5767 5767 5767 5767 5767 5767 5767 5767 5768 5768 5768 5768 5768 5768 5768 5767 5767 5767 5767 5767 5767 5767 5767 5766 5766 5766 5766 5767 5766 5766 5766 5766 5766 5765 5765 5765 5765 5765 5765 5765 5765 5766 5766 5766 5766 5767 5767 5767 5767 5767 5767 5767 5767 5767 5767 5768 5768 5768 5769 5770 5770 5771 5772 5773
5762 5763 5763 5763 5764 5764 5764 5764 5764 5764 5764 5764 5764 5764 5764 5764 5764 5764 5765 5765 5765 5765 5765 5765 5765 5765 5765 5765 5765 5765 5765 5766 5766 5766 5766 5766 5765 5765 5765 5765 5765 5765 5765 5765 5764 5764 5764 5764 5764 5764 5764 5763 5763 5763 5763 5763 5763 5762 5762 5762 5762 5762 5762 5762 5762 5762 5763 5763 5763 5763 5763 5764 5764 5764 5763 5764 5764 5765 5765 5765 5766 5766 5767 5768 5768
5760 5761 5761 5762 5762 5762 5762 5763 5763 5763 5762 5762 5762 5762 5762 5762 5762 5762 5762 5763 5763 5763 5763 5764 5764 5764 5764 5763 5763 5763 5763 5763 5763 5763 5763 5763 5763 5763 5763 5763 5763 5763 5763 5763 5762 5762 5762 5762 5762 5762 5762 5761 5761 5761 5760 5760 5760 5760 5760 5760 5759 5759 5759 5759 5759 5759 5759 5759 5760 5760 5760 5760 5760 5760 5760 5760 5760 5761 5762 5762 5762 5763 5763 5764 5764
5758 5759 5760 5760 5760 5760 5761 5761 5760 5760 5760 5760 5760 5760 5760 5760 5760 5760 5760 5760 5761 5761 5761 5762 5762 5762 5762 5762 5761 5761 5761 5761 5761 5761 5761 5761 5761 5761 5761 5761 5761 5761 5761 5760 5760 5760 5760 5760 5759 5759 5759 5759 5759 5759 5758 5758 5758 5758 5758 5758 5757 5757 5757 5756 5756 5756 5756 5756 5756 5757 5757 5757 5757 5757 5757 5757 5757 5758 5758 5758 5758 5759 5759 5759 5760
5757 5757 5758 5759 5759 5759 5759 5758 5758 5758 5758 5758 5758 5758 5758 5758 5758 5758 5758 5758 5758 5759 5759 5759 5759 5760 5760 5760 5759 5759 5759 5759 5759 5759 5759 5759 5759 5759 5759 5759 5759 5759 5758 5758 5758 5758 5757 5757 5757 5757 5757 5757 5757 5757 5757 5756 5756 5756 5756 5756 5755 5755 5755 5754 5754 5754 5754 5754 5754 5754 5754 5754 5754 5754 5755 5755 5755 5755 5755 5755 5755 5755 5755 5755 5756
5755 5756 5756 5757 5757 5757 5757 5757 5757 5756 5756 5756 5756 5756 5756 5756 5756 5756 5756 5756 5757 5757 5757 5757 5757 5757 5757 5757 5757 5757 5757 5757 5756 5756 5756 5756 5757 5757 5757 5756 5756 5756 5756 5756 5756 5755 5755 5755 5755 5755 5755 5755 5755 5754 5754 5754 5754 5754 5753 5753 5753 5753 5753 5753 5752 5752 5752 5752 5752 5752 5752 5752 5752 5752 5752 5752 5752 5752 5752 5752 5752 5752 5752 5752 5753
5754 5754 5754 5755 5755 5755 5755 5755 5755 5754 5754 5754 5754 5754 5754 5754 5754 5754 5754 5755 5755 5755 5755 5755 5755 5754 5754 5754 5755 5755 5754 5754 5754 5754 5754 5754 5754 5754 5754 5754 5754 5754 5753 5753 5753 5753 5753 5753 5753 5753 5752 5752 5752 5752 5752 5752 5752 5751 5751 5751 5751 5751 5751 5751 5750 5750 5750 5750 5750 5750 5750 5750 5749 5749 5750 5750 5750 5750 5750 5750 5750 5750 5750 5750 5750
5751 5752 5752 5752 5752 5753 5753 5753 5752 5752 5752 5752 5752 5752 5751 5751 5751 5752 5752 5752 5753 5753 5753 5753 5753 5753 5752 5752 5752 5752 5753 5752 5752 5752 5752 5752 5752 5752 5752 5752 5752 5751 5751 5751 5751 5750 5750 5750 5750 5750 5750 5750 5750 5750 5749 5749 5749 5749 5749 5749 5749 5748 5748 5748 5748 5748 5748 5747 5747 5747 5747 5747 5747 5747 5747 5747 5747 5747 5747 5747 5747 5747 5747 5748 5748
5749 5749 5749 5749 5750 5750 5750 5750 5750 5750 5750 5750 5749 5749 5749 5749 5749 5749 5750 5750 5750 5751 5751 5751 5751 5751 5751 5751 5750 5750 5750 5751 5750 5750 5750 5749 5749 5749 5749 5749 5749 5749 5749 5749 5749 5748 5748 5748 5747 5747 5747 5746 5746 5746 5746 5746 5746 5746 5746 5746 5746 5746 5746 5745 5746 5745 5745 5745 5745 5745 5744 5744 5744 5744 5744 5744 5744 5744 5745 5745 5745 5745 5745 5745 5745
5747 5747 5747 5747 5747 5747 5748 5748 5748 5748 5748 5747 5747 5747 5747 5747 5747 5747 5747 5747 5748 5748 5748 5748 5748 5748 5748 5748 5748 5748 5748 5748 5748 5748 5747 5747 5747 5747 5747 5747 5746 5746 5746 5746 5746 5746 5745 5745 5745 5744 5744 5743 5743 5743 5743 5743 5743 5743 5743 5743 5743 5743 5742 5742 5742 5742 5742 5742 5742 5742 5741 5741 5741 5741 5741 5741 5741 5741 5741 5742 5742 5742 5742 5742 5742
5745 5745 5745 5744 5744 5745 5745 5746 5746 5746 5745 5745 5745 5744 5744 5744 5744 5744 5744 5744 5745 5745 5745 5745 5745 5745 5745 5745 5745 5746 5745 5745 5745 5745 5745 5745 5745 5744 5744 5744 5743 5743 5743 5742 5742 5742 5742 5742 5742 5742 5742 5741 5741 5740 5740 5739 5739 5739 5739 5738 5738 5739 5739 5739 5739 5739 5738 5738 5738 5738 5738 5738 5738 5738 5738 5738 5738 5738 5738 5738 5738 5738 5738 5739 5739
5742 5742 5742 5742 5742 5742 5742 5742 5743 5743 5742 5742 5742 5742 5741 5741 5741 5741 5741 5741 5741 5741 5742 5742 5742 5742 5742 5742 5742 5743 5742 5742 5743 5743 5743 5742 5743 5742 5741 5740 5740 5739 5739 5739 5739 5739 5739 5739 5739 5739 5738 5738 5738 5737 5737 5736 5735 5735 5735 5734 5734 5734 5734 5734 5735 5735 5735 5734 5734 5734 5734 5734 5734 5734 5734 5734 5734 5734 5734 5734 5734 5734 5734 5734 5734
5739 5739 5739 5739 5739 5739 5739 5738 5738 5738 5739 5738 5739 5739 5739 5738 5738 5738 5738 5738 5738 5738 5738 5738 5739 5739 5739 5739 5739 5739 5739 5739 5740 5740 5740 5740 5740 5739 5738 5738 5737 5736 5735 5735 5735 5735 5735 5735 5735 5735 5734 5734 5734 5733 5733 5732 5731 5731 5731 5731 5731 5731 5730 5730 5730 5731 5730 5730 5730 5730 5730 5730 5730 5730 5730 5730 5730 5730 5730 5730 5730 5730 5730 5730 5730
5736 5735 5735 5735 5735 5735 5734 5734 5734 5734 5734 5734 5735 5735 5735 5735 5735 5735 5735 5734 5734 5734 5734 5734 5734 5735 5735 5735 5735 5735 5736 5736 5736 5736 5736 5736 5736 5735 5734 5734 5733 5732 5732 5732 5731 5731 5731 5731 5730 5730 5730 5730 5729 5729 5728 5728 5727 5727 5727 5727 5727 5726 5726 5726 5725 5726 5726 5725 5725 5726 5726 5726 5726 5725 5725 5726 5726 5726 5725 5725 5726 5726 5726 5726 5726
5731 5731 5731 5731 5730 5730 5730 5729 5729 5729 5729 5730 5730 5730 5731 5731 5731 5731 5731 5731 5730 5730 5730 5730 5730 5730 5730 5730 5730 5730 5731 5731 5731 5731 5731 5731 5731 5731 5730 5730 5729 5729 5728 5727 5727 5727 5727 5727 5726 5726 5725 5725 5725 5724 5723 5723 5722 5722 5722 5722 5722 5721 5721 5721 5720 5721 5722 5721 5720 5720 5720 5720 5721 5720 5720 5720 5721 5721 5720 5720 5720 5721 5721 5721 5721
5726 5726 5726 5725 5725 5725 5724 5724 5724 5724 5724 5724 5724 5725 5726 5726 5726 5726 5726 5726 5726 5726 5725 5725 5726 5726 5725 5726 5726 5726 5726 5726 5727 5727 5726 5726 5726 5726 5725 5725 5725 5724 5723 5722 5722 5723 5722 5722 5722 5722 5721 5720 5720 5719 5718 5717 5717 5717 5717 5716 5716 5716 5716 5715 5715 5715 5716 5716 5715 5714 5714 5714 5715 5715 5714 5714 5715 5715 5714 5714 5715 5715 5715 5715 5715
5721 5721 5720 5719 5719 5719 5719 5719 5720 5720 5719 5719 5719 5720 5720 5721 5721 5721 5721 5721 5721 5721 5721 5720 5720 5720 5720 5720 5721 5721 5721 5721 5722 5722 5721 5720 5720 5721 5720 5720 5719 5719 5718 5717 5717 5717 5717 5716 5717 5717 5716 5715 5715 5714 5713 5712 5711 5711 5711 5710 5710 5710 5709 5709 5709 5708 5708 5709 5709 5708 5708 5707 5707 5708 5708 5707 5708 5708 5707 5707 5708 5708 5708 5709 5709
5716 5715 5715 5714 5714 5714 5714 5715 5715 5716 5715 5713 5714 5715 5715 5715 5716 5716 5716 5716 5716 5716 5715 5715 5715 5714 5714 5715 5715 5715 5716 5716 5716 5716 5716 5715 5715 5715 5715 5714 5714 5713 5713 5712 5712 5711 5711 5711 5710 5710 5710 5709 5708 5708 5707 5706 5705 5705 5705 5704 5703 5703 5703 5702 5702 5701 5701 5702 5702 5702 5702 5700 5700 5701 5701 5700 5700 5701 5700 5700 5700 5700 5700 5701 5701
5710 5710 5710 5709 5709 5709 5709 5708 5709 5710 5709 5708 5709 5710 5710 5711 5711 5711 5711 5711 5711 5710 5710 5710 5710 5710 5710 5710 5710 5710 5711 5711 5711 5711 5711 5710 5710 5710 5710 5709 5708 5708 5707 5707 5706 5706 5705 5705 5704 5704 5703 5703 5701 5701 5701 5700 5699 5698 5698 5697 5697 5696 5696 5696 5695 5695 5694 5694 5694 5694 5694 5693 5692 5692 5693 5693 5692 5692 5692 5692 5692 5692 5692 5692 5691
5705 5705 5705 5705 5704 5704 5703 5702 5703 5704 5703 5703 5704 5705 5705 5706 5706 5706 5706 5706 5706 5706 5706 5706 5706 5706 5706 5706 5705 5705 5706 5706 5706 5706 5706 5706 5705 5705 5704 5704 5703 5703 5702 5701 5701 5700 5700 5699 5698 5697 5697 5696 5695 5694 5693 5693 5692 5692 5691 5690 5689 5689 5689 5688 5688 5687 5686 5686 5686 5686 5686 5685 5684 5683 5684 5684 5684 5683 5683 5683 5683 5683 5683 5683 5682
5699 5700 5700 5700 5700 5700 5699 5698 5697 5697 5697 5698 5699 5700 5700 5700 5701 5701 5701 5701 5701 5701 5701 5701 5701 5701 5701 5701 5701 5701 5701 5701 5702 5701 5701 5700 5700 5699 5699 5698 5698 5697 5696 5695 5695 5694 5693 5692 5692 5691 5690 5690 5689 5688 5687 5686 5685 5684 5683 5683 5682 5681 5681 5681 5680 5679 5678 5678 5678 5678 5678 5677 5675 5674 5675 5675 5675 5674 5674 5674 5673 5674 5674 5673 5673
5692 5693 5694 5694 5694 5694 5694 5694 5693 5691 5691 5692 5693 5694 5694 5694 5695 5695 5695 5695 5696 5696 5696 5696 5696 5696 5696 5696 5696 5697 5697 5697 5696 5696 5695 5695 5694 5694 5693 5692 5692 5691 5691 5690 5689 5688 5687 5686 5685 5685 5684 5683 5682 5681 5680 5679 5678 5677 5676 5675 5674 5674 5673 5673 5672 5671 5670 5669 5668 5668 5669 5668 5666 5665 5665 5665 5665 5665 5665 5663 5663 5663 5664 5663 5663
5685 5686 5686 5687 5687 5687 5687 5687 5687 5686 5686 5686 5687 5687 5688 5688 5688 5689 5689 5690 5690 5690 5691 5691 5691 5691 5691 5691 5691 5692 5691 5691 5691 5690 5689 5689 5688 5688 5687 5686 5685 5685 5684 5683 5683 5682 5681 5680 5679 5678 5677 5676 5675 5674 5673 5672 5671 5670 5669 5667 5667 5666 5665 5665 5664 5663 5662 5661 5659 5659 5660 5658 5657 5656 5655 5655 5656 5656 5655 5654 5653 5652 5652 5652 5652
5677 5678 5679 5680 5680 5680 5680 5680 5680 5680 5680 5680 5681 5681 5682 5682 5683 5683 5684 5684 5685 5685 5686 5686 5686 5686 5686 5686 5686 5686 5685 5685 5685 5684 5684 5683 5683 5682 5681 5680 5679 5679 5678 5677 5676 5676 5675 5674 5673 5672 5670 5669 5668 5667 5666 5665 5664 5663 5661 5660 5659 5658 5658 5657 5655 5655 5654 5652 5651 5651 5651 5649 5648 5647 5646 5645 5646 5646 5645 5644 5643 5642 5642 5641 5641